• In Netherlands
  • List of Countries
  • For 7 days
  • Water Temperature
  • Satellite Maps
  • Weather Map
  • Weather Widgets
  • user-avatar
    Login

    Hourly Weather Luanda

    Today, 23 March, Thursday

    Time Temperature Precipitation Wind Pressure Humidity
    00:00 +27°C° 0.1 mm 2 mps 754 mmHg 88%
    01:00 +26°C° 0 mm 1 mps 754 mmHg 91%
    02:00 +26°C° 0 mm 1 mps 754 mmHg 92%
    03:00 +26°C° 0 mm 1 mps 754 mmHg 92%
    04:00 +26°C° 0 mm 1 mps 754 mmHg 93%
    05:00 +26°C° 0 mm 1 mps 754 mmHg 92%
    06:00 +26°C° 0 mm 1 mps 754 mmHg 91%
    07:00 +26°C° 0 mm 2 mps 754 mmHg 90%
    08:00 +28°C° 0 mm 2 mps 754 mmHg 80%
    09:00 +31°C° 0 mm 1 mps 755 mmHg 70%
    10:00 +33°C° 0 mm 1 mps 755 mmHg 60%
    11:00 +35°C° 0 mm 2 mps 754 mmHg 56%
    12:00 +36°C° 0 mm 2 mps 754 mmHg 52%
    13:00 +37°C° 0 mm 3 mps 753 mmHg 48%
    14:00 +36°C° 0 mm 3 mps 753 mmHg 51%
    15:00 +35°C° 0 mm 4 mps 752 mmHg 54%
    16:00 +35°C° 0 mm 4 mps 751 mmHg 57%
    17:00 +33°C° 0 mm 4 mps 752 mmHg 64%
    18:00 +30°C° 0 mm 3 mps 752 mmHg 71%
    19:00 +29°C° 0 mm 3 mps 752 mmHg 78%
    20:00 +29°C° 0 mm 3 mps 753 mmHg 79%
    21:00 +28°C° 0 mm 3 mps 754 mmHg 81%
    22:00 +28°C° 0 mm 3 mps 754 mmHg 82%
    23:00 +28°C° 0 mm 3 mps 754 mmHg 82%

    Tomorrow, 24 March, Friday

    Time Temperature Precipitation Wind Pressure Humidity
    00:00 +28°C° 0 mm 3 mps 754 mmHg 83%
    01:00 +28°C° 0 mm 3 mps 754 mmHg 84%
    02:00 +28°C° 0.4 mm 2 mps 754 mmHg 86%
    03:00 +27°C° 0.4 mm 2 mps 753 mmHg 88%
    04:00 +27°C° 0.4 mm 2 mps 753 mmHg 90%
    05:00 +27°C° 0.1 mm 2 mps 753 mmHg 90%
    06:00 +27°C° 0.1 mm 2 mps 754 mmHg 90%
    07:00 +27°C° 0.1 mm 2 mps 754 mmHg 90%
    08:00 +28°C° 0 mm 2 mps 754 mmHg 86%
    09:00 +29°C° 0 mm 2 mps 755 mmHg 81%
    10:00 +29°C° 0 mm 2 mps 755 mmHg 77%
    11:00 +32°C° 0 mm 2 mps 755 mmHg 65%
    12:00 +36°C° 0 mm 2 mps 754 mmHg 54%
    13:00 +39°C° 0 mm 1 mps 754 mmHg 42%
    14:00 +37°C° 0.7 mm 2 mps 753 mmHg 49%
    15:00 +35°C° 0.7 mm 3 mps 752 mmHg 57%
    16:00 +33°C° 0.7 mm 3 mps 752 mmHg 64%
    17:00 +31°C° 0.2 mm 3 mps 752 mmHg 70%
    18:00 +30°C° 0.2 mm 2 mps 752 mmHg 75%
    19:00 +28°C° 0.2 mm 2 mps 753 mmHg 81%
    20:00 +28°C° 0.3 mm 2 mps 753 mmHg 81%
    21:00 +28°C° 0.3 mm 1 mps 754 mmHg 81%
    22:00 +28°C° 0.3 mm 1 mps 755 mmHg 81%
    23:00 +27°C° 0 mm 2 mps 754 mmHg 83%

    Day after tomorrow, 25 March, Saturday

    Time Temperature Precipitation Wind Pressure Humidity
    00:00 +27°C° 0 mm 3 mps 754 mmHg 84%
    01:00 +27°C° 0 mm 4 mps 754 mmHg 85%
    02:00 +27°C° 0 mm 4 mps 754 mmHg 86%
    03:00 +26°C° 0 mm 4 mps 753 mmHg 87%
    04:00 +26°C° 0 mm 4 mps 753 mmHg 88%
    05:00 +26°C° 0 mm 4 mps 753 mmHg 87%
    06:00 +26°C° 0 mm 3 mps 753 mmHg 87%
    07:00 +26°C° 0 mm 3 mps 754 mmHg 86%
    08:00 +28°C° 0 mm 3 mps 754 mmHg 77%
    09:00 +30°C° 0 mm 3 mps 754 mmHg 68%
    10:00 +33°C° 0 mm 4 mps 755 mmHg 58%
    11:00 +34°C° 0 mm 3 mps 754 mmHg 54%
    12:00 +35°C° 0 mm 3 mps 753 mmHg 49%
    13:00 +37°C° 0 mm 3 mps 752 mmHg 44%
    14:00 +36°C° 0 mm 4 mps 752 mmHg 48%
    15:00 +35°C° 0 mm 5 mps 751 mmHg 51%
    16:00 +35°C° 0 mm 5 mps 751 mmHg 55%
    17:00 +33°C° 0 mm 5 mps 751 mmHg 63%
    18:00 +30°C° 0 mm 5 mps 752 mmHg 70%
    19:00 +29°C° 0 mm 4 mps 752 mmHg 78%
    20:00 +29°C° 0 mm 4 mps 753 mmHg 80%
    21:00 +28°C° 0 mm 4 mps 753 mmHg 82%
    22:00 +28°C° 0 mm 4 mps 754 mmHg 84%
    23:00 +28°C° 0 mm 3 mps 753 mmHg 86%

    26 March, Sunday

    Time Temperature Precipitation Wind Pressure Humidity
    00:00 +27°C° 0 mm 3 mps 753 mmHg 88%
    01:00 +27°C° 0 mm 3 mps 753 mmHg 90%
    02:00 +27°C° 0 mm 3 mps 753 mmHg 91%
    03:00 +26°C° 0 mm 3 mps 752 mmHg 93%
    04:00 +26°C° 0 mm 3 mps 752 mmHg 94%
    05:00 +26°C° 0 mm 2 mps 752 mmHg 93%
    06:00 +27°C° 0 mm 2 mps 753 mmHg 91%
    07:00 +27°C° 0 mm 2 mps 753 mmHg 90%
    08:00 +29°C° 0 mm 2 mps 754 mmHg 79%
    09:00 +32°C° 0 mm 1 mps 754 mmHg 67%
    10:00 +34°C° 0 mm 1 mps 754 mmHg 56%
    11:00 +36°C° 0 mm 2 mps 753 mmHg 51%
    12:00 +38°C° 0 mm 2 mps 752 mmHg 46%
    13:00 +39°C° 0 mm 3 mps 751 mmHg 42%
    14:00 +38°C° 0 mm 4 mps 751 mmHg 47%
    15:00 +36°C° 0 mm 5 mps 750 mmHg 53%
    16:00 +35°C° 0 mm 6 mps 750 mmHg 58%
    17:00 +33°C° 0 mm 5 mps 750 mmHg 66%
    18:00 +32°C° 0 mm 5 mps 751 mmHg 73%
    19:00 +29°C° 0 mm 5 mps 751 mmHg 81%
    20:00 +28°C° 0 mm 4 mps 752 mmHg 84%
    21:00 +28°C° 0 mm 4 mps 752 mmHg 86%
    22:00 +28°C° 0 mm 3 mps 753 mmHg 89%
    23:00 +28°C° 0 mm 3 mps 752 mmHg 90%

    27 March, Monday

    Time Temperature Precipitation Wind Pressure Humidity
    00:00 +27°C° 0 mm 2 mps 752 mmHg 90%
    01:00 +27°C° 0 mm 2 mps 752 mmHg 91%
    02:00 +27°C° 0 mm 2 mps 752 mmHg 90%
    03:00 +28°C° 0 mm 2 mps 751 mmHg 89%
    04:00 +28°C° 0 mm 2 mps 751 mmHg 87%
    05:00 +28°C° 0 mm 2 mps 752 mmHg 87%
    06:00 +28°C° 0 mm 2 mps 752 mmHg 86%
    07:00 +28°C° 0 mm 2 mps 753 mmHg 86%
    08:00 +30°C° 0 mm 2 mps 753 mmHg 77%
    09:00 +31°C° 0 mm 2 mps 753 mmHg 68%
    10:00 +34°C° 0 mm 2 mps 753 mmHg 60%
    11:00 +36°C° 0 mm 2 mps 752 mmHg 52%
    12:00 +39°C° 0 mm 2 mps 751 mmHg 44%
    13:00 +42°C° 0 mm 2 mps 750 mmHg 36%
    14:00 +40°C° 0 mm 3 mps 750 mmHg 40%
    15:00 +40°C° 0 mm 4 mps 749 mmHg 43%
    16:00 +39°C° 0 mm 5 mps 749 mmHg 46%
    17:00 +35°C° 0 mm 5 mps 749 mmHg 57%
    18:00 +33°C° 0 mm 5 mps 750 mmHg 67%
    19:00 +30°C° 0 mm 5 mps 750 mmHg 77%
    20:00 +29°C° 0 mm 4 mps 751 mmHg 79%
    21:00 +29°C° 0 mm 3 mps 752 mmHg 82%
    22:00 +28°C° 0 mm 2 mps 752 mmHg 84%
    23:00 +28°C° 0 mm 2 mps 752 mmHg 85%

    28 March, Tuesday

    Time Temperature Precipitation Wind Pressure Humidity
    00:00 +28°C° 0 mm 2 mps 752 mmHg 86%
    01:00 +28°C° 0 mm 2 mps 751 mmHg 87%
    02:00 +28°C° 0 mm 2 mps 751 mmHg 88%
    03:00 +28°C° 0 mm 2 mps 751 mmHg 89%
    04:00 +27°C° 0 mm 2 mps 751 mmHg 90%
    05:00 +28°C° 0 mm 2 mps 751 mmHg 88%
    06:00 +28°C° 0 mm 2 mps 752 mmHg 86%
    07:00 +28°C° 0 mm 2 mps 752 mmHg 85%
    08:00 +31°C° 0 mm 2 mps 752 mmHg 74%
    09:00 +34°C° 0 mm 2 mps 752 mmHg 64%
    10:00 +35°C° 0 mm 1 mps 752 mmHg 54%
    11:00 +38°C° 0 mm 2 mps 751 mmHg 47%
    12:00 +40°C° 0 mm 3 mps 750 mmHg 39%
    13:00 +43°C° 0 mm 4 mps 749 mmHg 32%
    14:00 +42°C° 0 mm 5 mps 749 mmHg 36%
    15:00 +41°C° 0 mm 6 mps 748 mmHg 41%
    16:00 +40°C° 0 mm 6 mps 748 mmHg 45%
    17:00 +36°C° 0 mm 6 mps 748 mmHg 58%
    18:00 +33°C° 0 mm 5 mps 749 mmHg 70%
    19:00 +30°C° 0 mm 5 mps 749 mmHg 83%
    20:00 +30°C° 0 mm 4 mps 750 mmHg 84%
    21:00 +29°C° 0 mm 3 mps 751 mmHg 84%
    22:00 +29°C° 0 mm 2 mps 752 mmHg 85%
    23:00 +29°C° 0.1 mm 2 mps 751 mmHg 87%
    Show more